TimeCDT,TemperatureF,Dew PointF,Humidity,Sea Level PressureIn,VisibilityMPH,Wind Direction,Wind SpeedMPH,Gust SpeedMPH,PrecipitationIn,Events,Conditions,WindDirDegrees,DateUTC
12:56 AM,28.9,25.0,85,30.19,10.0,West,5.8,-,N/A,,Clear,280,2013-04-25 05:56:00
1:56 AM,27.0,23.0,85,30.20,10.0,WNW,4.6,-,N/A,,Clear,290,2013-04-25 06:56:00
2:56 AM,26.1,21.9,84,30.19,10.0,West,4.6,-,N/A,,Clear,270,2013-04-25 07:56:00
3:56 AM,26.1,21.9,84,30.21,10.0,West,3.5,-,N/A,,Clear,280,2013-04-25 08:56:00
4:56 AM,24.1,19.9,84,30.21,10.0,NW,4.6,-,N/A,,Clear,310,2013-04-25 09:56:00
5:56 AM,25.0,21.0,85,30.22,10.0,Calm,Calm,-,N/A,,Clear,0,2013-04-25 10:56:00
6:56 AM,24.1,21.0,88,30.24,10.0,Calm,Calm,-,N/A,,Clear,0,2013-04-25 11:56:00
7:56 AM,30.0,24.1,79,30.25,10.0,South,3.5,-,N/A,,Clear,190,2013-04-25 12:56:00
8:56 AM,34.0,21.9,61,30.24,10.0,Calm,Calm,-,N/A,,Clear,0,2013-04-25 13:56:00
9:56 AM,37.0,25.0,62,30.23,10.0,South,5.8,-,N/A,,Clear,180,2013-04-25 14:56:00
10:56 AM,41.0,28.0,60,30.20,10.0,South,9.2,-,N/A,,Clear,170,2013-04-25 15:56:00
11:56 AM,45.0,30.0,56,30.19,10.0,SE,10.4,-,N/A,,Clear,130,2013-04-25 16:56:00
12:56 PM,48.9,35.1,59,30.15,10.0,South,13.8,20.7,N/A,,Clear,170,2013-04-25 17:56:00
1:56 PM,55.0,37.9,53,30.12,10.0,South,16.1,-,N/A,,Partly Cloudy,170,2013-04-25 18:56:00
2:56 PM,59.0,37.0,44,30.06,10.0,SSE,16.1,24.2,N/A,,Partly Cloudy,160,2013-04-25 19:56:00
3:56 PM,62.1,37.0,39,30.04,10.0,South,18.4,25.3,N/A,,Clear,170,2013-04-25 20:56:00
4:56 PM,63.0,35.1,35,30.00,10.0,South,18.4,26.5,N/A,,Clear,180,2013-04-25 21:56:00
5:56 PM,64.9,35.1,33,29.97,10.0,South,16.1,27.6,N/A,,Clear,170,2013-04-25 22:56:00
6:56 PM,64.4,35.6,34,29.92,10.0,SSE,15.0,-,N/A,,Partly Cloudy,160,2013-04-25 23:56:00
7:56 PM,62.1,36.0,38,29.91,10.0,SSE,10.4,-,N/A,,Partly Cloudy,160,2013-04-26 00:56:00
8:56 PM,60.1,36.0,41,29.92,10.0,South,11.5,-,0.00,Rain,Light Rain,170,2013-04-26 01:56:00
9:56 PM,61.0,36.0,39,29.94,10.0,South,16.1,23.0,0.00,,Mostly Cloudy,180,2013-04-26 02:56:00
10:56 PM,59.0,36.0,42,29.95,10.0,South,19.6,33.4,0.00,Rain,Light Rain,180,2013-04-26 03:56:00
11:56 PM,55.9,37.0,49,29.94,10.0,South,15.0,-,0.00,,Scattered Clouds,180,2013-04-26 04:56:00